Year,Month,Day,Hour,Minute,Value (Times are PST for temperature in C)
2014,07,10,00,00,13.70
2014,07,10,00,01,13.70
2014,07,10,00,02,13.70
2014,07,10,00,03,13.60
2014,07,10,00,04,13.60
2014,07,10,00,05,13.60
2014,07,10,00,06,13.60
2014,07,10,00,07,13.60
2014,07,10,00,08,13.60
2014,07,10,00,09,13.60
2014,07,10,00,10,13.70
2014,07,10,00,11,13.70
2014,07,10,00,12,13.70
2014,07,10,00,13,13.60
2014,07,10,00,14,13.60
2014,07,10,00,15,13.60
2014,07,10,00,16,13.60
2014,07,10,00,17,13.50
2014,07,10,00,18,13.50
2014,07,10,00,19,13.40
2014,07,10,00,20,13.40
2014,07,10,00,21,13.40
2014,07,10,00,22,13.40
2014,07,10,00,23,13.40
2014,07,10,00,24,13.30
2014,07,10,00,25,13.30
2014,07,10,00,26,13.30
2014,07,10,00,27,13.30
2014,07,10,00,28,13.20
2014,07,10,00,29,13.20
2014,07,10,00,30,13.20
2014,07,10,00,31,13.20
2014,07,10,00,32,13.20
2014,07,10,00,33,13.30
2014,07,10,00,34,13.30
2014,07,10,00,35,13.30
2014,07,10,00,36,13.30
2014,07,10,00,37,13.40
2014,07,10,00,38,13.40
2014,07,10,00,39,13.40
2014,07,10,00,40,13.40
2014,07,10,00,41,13.40
2014,07,10,00,42,13.50
2014,07,10,00,43,13.50
2014,07,10,00,44,13.50
2014,07,10,00,45,13.40
2014,07,10,00,46,13.40
2014,07,10,00,47,13.40
2014,07,10,00,48,13.30
2014,07,10,00,49,13.30
2014,07,10,00,50,13.30
2014,07,10,00,51,13.20
2014,07,10,00,52,13.20
2014,07,10,00,53,13.20
2014,07,10,00,54,13.10
2014,07,10,00,55,13.10
2014,07,10,00,56,13.00
2014,07,10,00,57,13.00
2014,07,10,00,58,13.00
2014,07,10,00,59,13.00
2014,07,10,01,00,13.00
2014,07,10,01,01,13.00
2014,07,10,01,02,13.10
2014,07,10,01,03,13.10
2014,07,10,01,04,13.10
2014,07,10,01,05,13.10
2014,07,10,01,06,13.20
2014,07,10,01,07,13.30
2014,07,10,01,08,13.50
2014,07,10,01,09,13.70
2014,07,10,01,10,13.90
2014,07,10,01,11,14.00
2014,07,10,01,12,14.10
2014,07,10,01,13,14.10
2014,07,10,01,14,14.20
2014,07,10,01,15,14.30
2014,07,10,01,16,14.30
2014,07,10,01,17,14.40
2014,07,10,01,18,14.50
2014,07,10,01,19,14.60
2014,07,10,01,20,14.70
2014,07,10,01,21,14.70
2014,07,10,01,22,14.70
2014,07,10,01,23,14.80
2014,07,10,01,24,14.80
2014,07,10,01,25,14.80
2014,07,10,01,26,14.80
2014,07,10,01,27,14.90
2014,07,10,01,28,14.90
2014,07,10,01,29,14.90
2014,07,10,01,30,14.90
2014,07,10,01,31,14.90
2014,07,10,01,32,14.90
2014,07,10,01,33,14.90
2014,07,10,01,34,14.90
2014,07,10,01,35,14.90
2014,07,10,01,36,14.90
2014,07,10,01,37,14.90
2014,07,10,01,38,14.80
2014,07,10,01,39,14.70
2014,07,10,01,40,14.70
2014,07,10,01,41,14.60
2014,07,10,01,42,14.50
2014,07,10,01,43,14.40
2014,07,10,01,44,14.40
2014,07,10,01,45,14.30
2014,07,10,01,46,14.20
2014,07,10,01,47,14.20
2014,07,10,01,48,14.10
2014,07,10,01,49,14.10
2014,07,10,01,50,14.00
2014,07,10,01,51,14.00
2014,07,10,01,52,13.90
2014,07,10,01,53,13.90
2014,07,10,01,54,13.90
2014,07,10,01,55,13.90
2014,07,10,01,56,13.90
2014,07,10,01,57,13.80
2014,07,10,01,58,13.80
2014,07,10,01,59,13.80
2014,07,10,02,00,13.80
2014,07,10,02,01,13.80
2014,07,10,02,02,13.70
2014,07,10,02,03,13.70
2014,07,10,02,04,13.70
2014,07,10,02,05,13.70
2014,07,10,02,06,13.60
2014,07,10,02,07,13.60
2014,07,10,02,08,13.50
2014,07,10,02,09,13.50
2014,07,10,02,10,13.50
2014,07,10,02,11,13.40
2014,07,10,02,12,13.40
2014,07,10,02,13,13.30
2014,07,10,02,14,13.30
2014,07,10,02,15,13.30
2014,07,10,02,16,13.20
2014,07,10,02,17,13.20
2014,07,10,02,18,13.20
2014,07,10,02,19,13.10
2014,07,10,02,20,13.10
2014,07,10,02,21,13.00
2014,07,10,02,22,13.00
2014,07,10,02,23,12.90
2014,07,10,02,24,12.90
2014,07,10,02,25,12.80
2014,07,10,02,26,12.80
2014,07,10,02,27,12.70
2014,07,10,02,28,12.70
2014,07,10,02,29,12.70
2014,07,10,02,30,12.60
2014,07,10,02,31,12.60
2014,07,10,02,32,12.60
2014,07,10,02,33,12.50
2014,07,10,02,34,12.50
2014,07,10,02,35,12.50
2014,07,10,02,36,12.40
2014,07,10,02,37,12.40
2014,07,10,02,38,12.40
2014,07,10,02,39,12.30
2014,07,10,02,40,12.30
2014,07,10,02,41,12.30
2014,07,10,02,42,12.20
2014,07,10,02,43,12.20
2014,07,10,02,44,12.20
2014,07,10,02,45,12.20
2014,07,10,02,46,12.10
2014,07,10,02,47,12.10
2014,07,10,02,48,12.10
2014,07,10,02,49,12.10
2014,07,10,02,50,12.00
2014,07,10,02,51,12.00
2014,07,10,02,52,11.90
2014,07,10,02,53,11.90
2014,07,10,02,54,11.90
2014,07,10,02,55,11.90
2014,07,10,02,56,11.90
2014,07,10,02,57,11.80
2014,07,10,02,58,11.80
2014,07,10,02,59,11.80
2014,07,10,03,00,11.80
2014,07,10,03,01,11.80
2014,07,10,03,02,11.80
2014,07,10,03,03,11.80
2014,07,10,03,04,11.80
2014,07,10,03,05,11.70
2014,07,10,03,06,11.70
2014,07,10,03,07,11.70
2014,07,10,03,08,11.70
2014,07,10,03,09,11.60
2014,07,10,03,10,11.60
2014,07,10,03,11,11.60
2014,07,10,03,12,11.60
2014,07,10,03,13,11.50
2014,07,10,03,14,11.50
2014,07,10,03,15,11.50
2014,07,10,03,16,11.50
2014,07,10,03,17,11.50
2014,07,10,03,18,11.40
2014,07,10,03,19,11.40
2014,07,10,03,20,11.40
2014,07,10,03,21,11.40
2014,07,10,03,22,11.40
2014,07,10,03,23,11.40
2014,07,10,03,24,11.40
2014,07,10,03,25,11.40
2014,07,10,03,26,11.40
2014,07,10,03,27,11.30
2014,07,10,03,28,11.30
2014,07,10,03,29,11.30
2014,07,10,03,30,11.30
2014,07,10,03,31,11.30
2014,07,10,03,32,11.30
2014,07,10,03,33,11.20
2014,07,10,03,34,11.20
2014,07,10,03,35,11.20
2014,07,10,03,36,11.20
2014,07,10,03,37,11.20
2014,07,10,03,38,11.20
2014,07,10,03,39,11.20
2014,07,10,03,40,11.20
2014,07,10,03,41,11.20
2014,07,10,03,42,11.20
2014,07,10,03,43,11.20
2014,07,10,03,44,11.20
2014,07,10,03,45,11.20
2014,07,10,03,46,11.20
2014,07,10,03,47,11.20
2014,07,10,03,48,11.20
2014,07,10,03,49,11.10
2014,07,10,03,50,11.10
2014,07,10,03,51,11.10
2014,07,10,03,52,11.10
2014,07,10,03,53,11.10
2014,07,10,03,54,11.10
2014,07,10,03,55,11.10
2014,07,10,03,56,11.10
2014,07,10,03,57,11.10
2014,07,10,03,58,11.10
2014,07,10,03,59,11.10
2014,07,10,04,00,11.10
2014,07,10,04,01,11.10
2014,07,10,04,02,11.10
2014,07,10,04,03,11.00
2014,07,10,04,04,11.10
2014,07,10,04,05,11.00
2014,07,10,04,06,11.00
2014,07,10,04,07,11.00
2014,07,10,04,08,11.00
2014,07,10,04,09,10.90
2014,07,10,04,10,10.90
2014,07,10,04,11,10.90
2014,07,10,04,12,10.90
2014,07,10,04,13,10.90
2014,07,10,04,14,10.90
2014,07,10,04,15,10.80
2014,07,10,04,16,10.80
2014,07,10,04,17,10.80
2014,07,10,04,18,10.80
2014,07,10,04,19,10.80
2014,07,10,04,20,10.80
2014,07,10,04,21,10.70
2014,07,10,04,22,10.70
2014,07,10,04,23,10.70
2014,07,10,04,24,10.70
2014,07,10,04,25,10.70
2014,07,10,04,26,10.70
2014,07,10,04,27,10.70
2014,07,10,04,28,10.60
2014,07,10,04,29,10.60
2014,07,10,04,30,10.60
2014,07,10,04,31,10.60
2014,07,10,04,32,10.60
2014,07,10,04,33,10.60
2014,07,10,04,34,10.60
2014,07,10,04,35,10.60
2014,07,10,04,36,10.60
2014,07,10,04,37,10.60
2014,07,10,04,38,10.60
2014,07,10,04,39,10.60
2014,07,10,04,40,10.60
2014,07,10,04,41,10.60
2014,07,10,04,42,10.60
2014,07,10,04,43,10.60
2014,07,10,04,44,10.60
2014,07,10,04,45,10.60
2014,07,10,04,46,10.60
2014,07,10,04,47,10.60
2014,07,10,04,48,10.50
2014,07,10,04,49,10.50
2014,07,10,04,50,10.50
2014,07,10,04,51,10.50
2014,07,10,04,52,10.40
2014,07,10,04,53,10.40
2014,07,10,04,54,10.40
2014,07,10,04,55,10.40
2014,07,10,04,56,10.40
2014,07,10,04,57,10.40
2014,07,10,04,58,10.30
2014,07,10,04,59,10.30
2014,07,10,05,00,10.30
2014,07,10,05,01,10.30
2014,07,10,05,02,10.30
2014,07,10,05,03,10.30
2014,07,10,05,04,10.20
2014,07,10,05,05,10.20
2014,07,10,05,06,10.20
2014,07,10,05,07,10.20
2014,07,10,05,08,10.20
2014,07,10,05,09,10.20
2014,07,10,05,10,10.20
2014,07,10,05,11,10.20
2014,07,10,05,12,10.20
2014,07,10,05,13,10.20
2014,07,10,05,14,10.20
2014,07,10,05,15,10.20
2014,07,10,05,16,10.30
2014,07,10,05,17,10.30
2014,07,10,05,18,10.40
2014,07,10,05,19,10.40
2014,07,10,05,20,10.40
2014,07,10,05,21,10.40
2014,07,10,05,22,10.30
2014,07,10,05,23,10.30
2014,07,10,05,24,10.30
2014,07,10,05,25,10.30
2014,07,10,05,26,10.30
2014,07,10,05,27,10.30
2014,07,10,05,28,10.30
2014,07,10,05,29,10.30
2014,07,10,05,30,10.30
2014,07,10,05,31,10.30
2014,07,10,05,32,10.30
2014,07,10,05,33,10.30
2014,07,10,05,34,10.30
2014,07,10,05,35,10.30
2014,07,10,05,36,10.30
2014,07,10,05,37,10.30
2014,07,10,05,38,10.30
2014,07,10,05,39,10.30
2014,07,10,05,40,10.30
2014,07,10,05,41,10.30
2014,07,10,05,42,10.30
2014,07,10,05,43,10.30
2014,07,10,05,44,10.30
2014,07,10,05,45,10.30
2014,07,10,05,46,10.30
2014,07,10,05,47,10.30
2014,07,10,05,48,10.30
2014,07,10,05,49,10.30
2014,07,10,05,50,10.30
2014,07,10,05,51,10.30
2014,07,10,05,52,10.40
2014,07,10,05,53,10.40
2014,07,10,05,54,10.40
2014,07,10,05,55,10.40
2014,07,10,05,56,10.40
2014,07,10,05,57,10.40
2014,07,10,05,58,10.40
2014,07,10,05,59,10.40
2014,07,10,06,00,10.30
2014,07,10,06,01,10.30
2014,07,10,06,02,10.30
2014,07,10,06,03,10.30
2014,07,10,06,04,10.30
2014,07,10,06,05,10.20
2014,07,10,06,06,10.20
2014,07,10,06,07,10.20
2014,07,10,06,08,10.20
2014,07,10,06,09,10.20
2014,07,10,06,10,10.20
2014,07,10,06,11,10.20
2014,07,10,06,12,10.20
2014,07,10,06,13,10.20
2014,07,10,06,14,10.30
2014,07,10,06,15,10.30
2014,07,10,06,16,10.40
2014,07,10,06,17,10.50
2014,07,10,06,18,10.70
2014,07,10,06,19,10.80
2014,07,10,06,20,10.90
2014,07,10,06,21,10.90
2014,07,10,06,22,11.00
2014,07,10,06,23,11.10
2014,07,10,06,24,11.10
2014,07,10,06,25,11.10
2014,07,10,06,26,11.10
2014,07,10,06,27,11.00
2014,07,10,06,28,11.00
2014,07,10,06,29,10.90
2014,07,10,06,30,10.90
2014,07,10,06,31,10.90
2014,07,10,06,32,10.90
2014,07,10,06,33,10.90
2014,07,10,06,34,11.00
2014,07,10,06,35,11.10
2014,07,10,06,36,11.10
2014,07,10,06,37,11.10
2014,07,10,06,38,11.10
2014,07,10,06,39,11.10
2014,07,10,06,40,11.10
2014,07,10,06,41,11.10
2014,07,10,06,42,11.10
2014,07,10,06,43,11.00
2014,07,10,06,44,11.00
2014,07,10,06,45,11.10
2014,07,10,06,46,11.10
2014,07,10,06,47,11.10
2014,07,10,06,48,11.10
2014,07,10,06,49,11.10
2014,07,10,06,50,11.10
2014,07,10,06,51,11.10
2014,07,10,06,52,11.20
2014,07,10,06,53,11.20
2014,07,10,06,54,11.30
2014,07,10,06,55,11.30
2014,07,10,06,56,11.40
2014,07,10,06,57,11.50
2014,07,10,06,58,11.50
2014,07,10,06,59,11.60
2014,07,10,07,00,11.70
2014,07,10,07,01,11.80
2014,07,10,07,02,11.90
2014,07,10,07,03,12.00
2014,07,10,07,04,12.20
2014,07,10,07,05,12.30
2014,07,10,07,06,12.40
2014,07,10,07,07,12.60
2014,07,10,07,08,12.70
2014,07,10,07,09,12.80
2014,07,10,07,10,12.90
2014,07,10,07,11,13.00
2014,07,10,07,12,13.10
2014,07,10,07,13,13.20
2014,07,10,07,14,13.30
2014,07,10,07,15,13.30
2014,07,10,07,16,13.40
2014,07,10,07,17,13.50
2014,07,10,07,18,13.70
2014,07,10,07,19,13.80
2014,07,10,07,20,13.90
2014,07,10,07,21,13.90
2014,07,10,07,22,14.00
2014,07,10,07,23,14.10
2014,07,10,07,24,14.20
2014,07,10,07,25,14.30
2014,07,10,07,26,14.30
2014,07,10,07,27,14.40
2014,07,10,07,28,14.50
2014,07,10,07,29,14.60
2014,07,10,07,30,14.60
2014,07,10,07,31,14.70
2014,07,10,07,32,14.80
2014,07,10,07,33,14.80
2014,07,10,07,34,14.90
2014,07,10,07,35,15.00
2014,07,10,07,36,15.10
2014,07,10,07,37,15.10
2014,07,10,07,38,15.20
2014,07,10,07,39,15.20
2014,07,10,07,40,15.30
2014,07,10,07,41,15.40
2014,07,10,07,42,15.50
2014,07,10,07,43,15.60
2014,07,10,07,44,15.60
2014,07,10,07,45,15.60
2014,07,10,07,46,15.60
2014,07,10,07,47,15.70
2014,07,10,07,48,15.70
2014,07,10,07,49,15.70
2014,07,10,07,50,15.70
2014,07,10,07,51,15.70
2014,07,10,07,52,15.80
2014,07,10,07,53,15.80
2014,07,10,07,54,15.80
2014,07,10,07,55,15.80
2014,07,10,07,56,15.90
2014,07,10,07,57,15.90
2014,07,10,07,58,15.90
2014,07,10,07,59,15.90
2014,07,10,08,00,15.90
2014,07,10,08,01,16.00
2014,07,10,08,02,16.00
2014,07,10,08,03,16.10
2014,07,10,08,04,16.10
2014,07,10,08,05,16.10
2014,07,10,08,06,16.10
2014,07,10,08,07,16.10
2014,07,10,08,08,16.20
2014,07,10,08,09,16.20
2014,07,10,08,10,16.20
2014,07,10,08,11,16.20
2014,07,10,08,12,16.20
2014,07,10,08,13,16.20
2014,07,10,08,14,16.20
2014,07,10,08,15,16.20
2014,07,10,08,16,16.20
2014,07,10,08,17,16.20
2014,07,10,08,18,16.20
2014,07,10,08,19,16.20
2014,07,10,08,20,16.20
2014,07,10,08,21,16.20
2014,07,10,08,22,16.20
2014,07,10,08,23,16.20
2014,07,10,08,24,16.20
2014,07,10,08,25,16.20
2014,07,10,08,26,16.20
2014,07,10,08,27,16.30
2014,07,10,08,28,16.30
2014,07,10,08,29,16.30
2014,07,10,08,30,16.20
2014,07,10,08,31,16.20
2014,07,10,08,32,16.20
2014,07,10,08,33,16.20
2014,07,10,08,34,16.20
2014,07,10,08,35,16.20
2014,07,10,08,36,16.20
2014,07,10,08,37,16.10
2014,07,10,08,38,16.10
2014,07,10,08,39,16.10
2014,07,10,08,40,16.10
2014,07,10,08,41,16.10
2014,07,10,08,42,16.10
2014,07,10,08,43,16.10
2014,07,10,08,44,16.20
2014,07,10,08,45,16.30
2014,07,10,08,46,16.30
2014,07,10,08,47,16.40
2014,07,10,08,48,16.40
2014,07,10,08,49,16.40
2014,07,10,08,50,16.40
2014,07,10,08,51,16.40
2014,07,10,08,52,16.40
2014,07,10,08,53,16.50
2014,07,10,08,54,16.60
2014,07,10,08,55,16.80
2014,07,10,08,56,16.90
2014,07,10,08,57,17.00
2014,07,10,08,58,17.10
2014,07,10,08,59,17.20
2014,07,10,09,00,17.20
2014,07,10,09,01,17.30
2014,07,10,09,02,17.40
2014,07,10,09,03,17.50
2014,07,10,09,04,17.50
2014,07,10,09,05,17.60
2014,07,10,09,06,17.60
2014,07,10,09,07,17.60
2014,07,10,09,08,17.60
2014,07,10,09,09,17.60
2014,07,10,09,10,17.60
2014,07,10,09,11,17.60
2014,07,10,09,12,17.70
2014,07,10,09,13,17.80
2014,07,10,09,14,17.80
2014,07,10,09,15,17.90
2014,07,10,09,16,17.90
2014,07,10,09,17,18.00
2014,07,10,09,18,18.00
2014,07,10,09,19,18.00
2014,07,10,09,20,18.00
2014,07,10,09,21,18.00
2014,07,10,09,22,18.10
2014,07,10,09,23,18.10
2014,07,10,09,24,18.20
2014,07,10,09,25,18.20
2014,07,10,09,26,18.30
2014,07,10,09,27,18.30
2014,07,10,09,28,18.30
2014,07,10,09,29,18.20
2014,07,10,09,30,18.20
2014,07,10,09,31,18.20
2014,07,10,09,32,18.20
2014,07,10,09,33,18.20
2014,07,10,09,34,18.20
2014,07,10,09,35,18.20
2014,07,10,09,36,18.30
2014,07,10,09,37,18.30
2014,07,10,09,38,18.40
2014,07,10,09,39,18.40
2014,07,10,09,40,18.50
2014,07,10,09,41,18.50
2014,07,10,09,42,18.50
2014,07,10,09,43,18.50
2014,07,10,09,44,18.50
2014,07,10,09,45,18.50
2014,07,10,09,46,18.50
2014,07,10,09,47,18.60
2014,07,10,09,48,18.70
2014,07,10,09,49,18.80
2014,07,10,09,50,18.80
2014,07,10,09,51,18.90
2014,07,10,09,52,19.00
2014,07,10,09,53,19.00
2014,07,10,09,54,19.10
2014,07,10,09,55,19.00
2014,07,10,09,56,19.00
2014,07,10,09,57,19.00
2014,07,10,09,58,18.90
2014,07,10,09,59,18.90
2014,07,10,10,00,19.00
2014,07,10,10,01,19.00
2014,07,10,10,02,19.00
2014,07,10,10,03,19.00
2014,07,10,10,04,19.10
2014,07,10,10,05,19.10
2014,07,10,10,06,19.20
2014,07,10,10,07,19.30
2014,07,10,10,08,19.30
2014,07,10,10,09,19.40
2014,07,10,10,10,19.40
2014,07,10,10,11,19.50
2014,07,10,10,12,19.50
2014,07,10,10,13,19.40
2014,07,10,10,14,19.40
2014,07,10,10,15,19.40
2014,07,10,10,16,19.40
2014,07,10,10,17,19.50
2014,07,10,10,18,19.50
2014,07,10,10,19,19.60
2014,07,10,10,20,19.70
2014,07,10,10,21,19.70
2014,07,10,10,22,19.80
2014,07,10,10,23,19.80
2014,07,10,10,24,19.80
2014,07,10,10,25,19.70
2014,07,10,10,26,19.70
2014,07,10,10,27,19.70
2014,07,10,10,28,19.80
2014,07,10,10,29,19.80
2014,07,10,10,30,19.80
2014,07,10,10,31,19.90
2014,07,10,10,32,19.90
2014,07,10,10,33,19.90
2014,07,10,10,34,19.90
2014,07,10,10,35,19.90
2014,07,10,10,36,19.90
2014,07,10,10,37,19.90
2014,07,10,10,38,19.90
2014,07,10,10,39,19.90
2014,07,10,10,40,19.90
2014,07,10,10,41,19.90
2014,07,10,10,42,20.00
2014,07,10,10,43,20.00
2014,07,10,10,44,20.10
2014,07,10,10,45,20.10
2014,07,10,10,46,20.10
2014,07,10,10,47,20.20
2014,07,10,10,48,20.20
2014,07,10,10,49,20.20
2014,07,10,10,50,20.20
2014,07,10,10,51,20.20
2014,07,10,10,52,20.20
2014,07,10,10,53,20.30
2014,07,10,10,54,20.30
2014,07,10,10,55,20.30
2014,07,10,10,56,20.40
2014,07,10,10,57,20.40
2014,07,10,10,58,20.40
2014,07,10,10,59,20.50
2014,07,10,11,00,20.60
2014,07,10,11,01,20.70
2014,07,10,11,02,20.80
2014,07,10,11,03,20.80
2014,07,10,11,04,20.90
2014,07,10,11,05,20.90
2014,07,10,11,06,20.90
2014,07,10,11,07,20.90
2014,07,10,11,08,21.00
2014,07,10,11,09,21.00
2014,07,10,11,10,21.10
2014,07,10,11,11,21.10
2014,07,10,11,12,21.00
2014,07,10,11,13,21.00
2014,07,10,11,14,20.90
2014,07,10,11,15,20.90
2014,07,10,11,16,20.90
2014,07,10,11,17,20.90
2014,07,10,11,18,21.00
2014,07,10,11,19,21.00
2014,07,10,11,20,20.90
2014,07,10,11,21,20.80
2014,07,10,11,22,20.60
2014,07,10,11,23,20.40
2014,07,10,11,24,20.30
2014,07,10,11,25,20.30
2014,07,10,11,26,20.30
2014,07,10,11,27,20.30
2014,07,10,11,28,20.40
2014,07,10,11,29,20.40
2014,07,10,11,30,20.40
2014,07,10,11,31,20.50
2014,07,10,11,32,20.50
2014,07,10,11,33,20.70
2014,07,10,11,34,20.80
2014,07,10,11,35,20.90
2014,07,10,11,36,20.90
2014,07,10,11,37,21.00
2014,07,10,11,38,21.00
2014,07,10,11,39,20.90
2014,07,10,11,40,20.90
2014,07,10,11,41,20.80
2014,07,10,11,42,20.80
2014,07,10,11,43,20.70
2014,07,10,11,44,20.70
2014,07,10,11,45,20.50
2014,07,10,11,46,20.40
2014,07,10,11,47,20.30
2014,07,10,11,48,20.20
2014,07,10,11,49,20.20
2014,07,10,11,50,20.20
2014,07,10,11,51,20.20
2014,07,10,11,52,20.00
2014,07,10,11,53,19.90
2014,07,10,11,54,19.80
2014,07,10,11,55,19.60
2014,07,10,11,56,19.50
2014,07,10,11,57,19.50
2014,07,10,11,58,19.60
2014,07,10,11,59,19.70
2014,07,10,12,00,19.70
2014,07,10,12,01,19.70
2014,07,10,12,02,19.70
2014,07,10,12,03,19.80
2014,07,10,12,04,19.70
2014,07,10,12,05,19.60
2014,07,10,12,06,19.60
2014,07,10,12,07,19.50
2014,07,10,12,08,19.40
2014,07,10,12,09,19.30
2014,07,10,12,10,19.30
2014,07,10,12,11,19.30
2014,07,10,12,12,19.30
2014,07,10,12,13,19.20
2014,07,10,12,14,19.30
2014,07,10,12,15,19.40
2014,07,10,12,16,19.50
2014,07,10,12,17,19.60
2014,07,10,12,18,19.80
2014,07,10,12,19,19.90
2014,07,10,12,20,20.10
2014,07,10,12,21,20.30
2014,07,10,12,22,20.30
2014,07,10,12,23,20.40
2014,07,10,12,24,20.50
2014,07,10,12,25,20.50
2014,07,10,12,26,20.40
2014,07,10,12,27,20.40
2014,07,10,12,28,20.30
2014,07,10,12,29,20.30
2014,07,10,12,30,20.30
2014,07,10,12,31,20.30
2014,07,10,12,32,20.30
2014,07,10,12,33,20.30
2014,07,10,12,34,20.30
2014,07,10,12,35,20.40
2014,07,10,12,36,20.50
2014,07,10,12,37,20.50
2014,07,10,12,38,20.40
2014,07,10,12,39,20.50
2014,07,10,12,40,20.50
2014,07,10,12,41,20.60
2014,07,10,12,42,20.60
2014,07,10,12,43,20.50
2014,07,10,12,44,20.50
2014,07,10,12,45,20.50
2014,07,10,12,46,20.40
2014,07,10,12,47,20.40
2014,07,10,12,48,20.40
2014,07,10,12,49,20.40
2014,07,10,12,50,20.40
2014,07,10,12,51,20.50
2014,07,10,12,52,20.50
2014,07,10,12,53,20.60
2014,07,10,12,54,20.80
2014,07,10,12,55,20.80
2014,07,10,12,56,20.90
2014,07,10,12,57,20.80
2014,07,10,12,58,20.80
2014,07,10,12,59,20.80
2014,07,10,13,00,20.60
2014,07,10,13,01,20.50
2014,07,10,13,02,20.50
2014,07,10,13,03,20.50
2014,07,10,13,04,20.60
2014,07,10,13,05,20.60
2014,07,10,13,06,20.70
2014,07,10,13,07,20.70
2014,07,10,13,08,20.80
2014,07,10,13,09,20.80
2014,07,10,13,10,20.90
2014,07,10,13,11,20.90
2014,07,10,13,12,21.00
2014,07,10,13,13,21.00
2014,07,10,13,14,21.00
2014,07,10,13,15,21.00
2014,07,10,13,16,21.00
2014,07,10,13,17,21.10
2014,07,10,13,18,21.10
2014,07,10,13,19,21.20
2014,07,10,13,20,21.40
2014,07,10,13,21,21.50
2014,07,10,13,22,21.60
2014,07,10,13,23,21.60
2014,07,10,13,24,21.70
2014,07,10,13,25,21.70
2014,07,10,13,26,21.70
2014,07,10,13,27,21.70
2014,07,10,13,28,21.70
2014,07,10,13,29,21.80
2014,07,10,13,30,21.80
2014,07,10,13,31,22.00
2014,07,10,13,32,22.00
2014,07,10,13,33,22.10
2014,07,10,13,34,22.10
2014,07,10,13,35,22.10
2014,07,10,13,36,22.10
2014,07,10,13,37,22.10
2014,07,10,13,38,22.20
2014,07,10,13,39,22.30
2014,07,10,13,40,22.40
2014,07,10,13,41,22.60
2014,07,10,13,42,22.80
2014,07,10,13,43,22.80
2014,07,10,13,44,22.80
2014,07,10,13,45,22.70
2014,07,10,13,46,22.70
2014,07,10,13,47,22.60
2014,07,10,13,48,22.70
2014,07,10,13,49,22.70
2014,07,10,13,50,22.60
2014,07,10,13,51,22.60
2014,07,10,13,52,22.70
2014,07,10,13,53,22.70
2014,07,10,13,54,22.70
2014,07,10,13,55,22.70
2014,07,10,13,56,22.80
2014,07,10,13,57,22.80
2014,07,10,13,58,22.80
2014,07,10,13,59,22.80
2014,07,10,14,00,22.80
2014,07,10,14,01,22.70
2014,07,10,14,02,22.70
2014,07,10,14,03,22.70
2014,07,10,14,04,22.80
2014,07,10,14,05,22.80
2014,07,10,14,06,22.80
2014,07,10,14,07,22.80
2014,07,10,14,08,22.80
2014,07,10,14,09,22.80
2014,07,10,14,10,22.70
2014,07,10,14,11,22.70
2014,07,10,14,12,22.80
2014,07,10,14,13,22.90
2014,07,10,14,14,22.90
2014,07,10,14,15,22.90
2014,07,10,14,16,23.00
2014,07,10,14,17,23.00
2014,07,10,14,18,23.10
2014,07,10,14,19,23.10
2014,07,10,14,20,23.20
2014,07,10,14,21,23.30
2014,07,10,14,22,23.40
2014,07,10,14,23,23.50
2014,07,10,14,24,23.60
2014,07,10,14,25,23.60
2014,07,10,14,26,23.60
2014,07,10,14,27,23.40
2014,07,10,14,28,23.30
2014,07,10,14,29,23.20
2014,07,10,14,30,23.20
2014,07,10,14,31,23.20
2014,07,10,14,32,23.20
2014,07,10,14,33,23.30
2014,07,10,14,34,23.40
2014,07,10,14,35,23.30
2014,07,10,14,36,23.30
2014,07,10,14,37,23.40
2014,07,10,14,38,23.40
2014,07,10,14,39,23.50
2014,07,10,14,40,23.60
2014,07,10,14,41,23.80
2014,07,10,14,42,23.90
2014,07,10,14,43,24.00
2014,07,10,14,44,24.00
2014,07,10,14,45,23.90
2014,07,10,14,46,24.00
2014,07,10,14,47,24.00
2014,07,10,14,48,24.00
2014,07,10,14,49,24.10
2014,07,10,14,50,24.10
2014,07,10,14,51,24.10
2014,07,10,14,52,24.00
2014,07,10,14,53,24.00
2014,07,10,14,54,23.90
2014,07,10,14,55,23.90
2014,07,10,14,56,23.80
2014,07,10,14,57,23.80
2014,07,10,14,58,23.90
2014,07,10,14,59,23.90
2014,07,10,15,00,24.00
2014,07,10,15,01,24.10
2014,07,10,15,02,24.10
2014,07,10,15,03,24.10
2014,07,10,15,04,24.00
2014,07,10,15,05,24.00
2014,07,10,15,06,23.90
2014,07,10,15,07,23.90
2014,07,10,15,08,23.90
2014,07,10,15,09,23.80
2014,07,10,15,10,23.80
2014,07,10,15,11,23.80
2014,07,10,15,12,23.90
2014,07,10,15,13,24.00
2014,07,10,15,14,24.10
2014,07,10,15,15,24.20
2014,07,10,15,16,24.30
2014,07,10,15,17,24.50
2014,07,10,15,18,24.60
2014,07,10,15,19,24.80
2014,07,10,15,20,24.90
2014,07,10,15,21,25.00
2014,07,10,15,22,25.10
2014,07,10,15,23,25.10
2014,07,10,15,24,25.20
2014,07,10,15,25,25.30
2014,07,10,15,26,25.40
2014,07,10,15,27,25.40
2014,07,10,15,28,25.40
2014,07,10,15,29,25.50
2014,07,10,15,30,25.50
2014,07,10,15,31,25.40
2014,07,10,15,32,25.40
2014,07,10,15,33,25.30
2014,07,10,15,34,25.30
2014,07,10,15,35,25.30
2014,07,10,15,36,25.30
2014,07,10,15,37,25.40
2014,07,10,15,38,25.50
2014,07,10,15,39,25.50
2014,07,10,15,40,25.60
2014,07,10,15,41,25.60
2014,07,10,15,42,25.70
2014,07,10,15,43,25.70
2014,07,10,15,44,25.80
2014,07,10,15,45,25.80
2014,07,10,15,46,25.70
2014,07,10,15,47,25.70
2014,07,10,15,48,25.70
2014,07,10,15,49,25.70
2014,07,10,15,50,25.70
2014,07,10,15,51,25.70
2014,07,10,15,52,25.70
2014,07,10,15,53,25.70
2014,07,10,15,54,25.60
2014,07,10,15,55,25.60
2014,07,10,15,56,25.50
2014,07,10,15,57,25.50
2014,07,10,15,58,25.40
2014,07,10,15,59,25.50
2014,07,10,16,00,25.50
2014,07,10,16,01,25.60
2014,07,10,16,02,25.60
2014,07,10,16,03,25.60
2014,07,10,16,04,25.60
2014,07,10,16,05,25.60
2014,07,10,16,06,25.60
2014,07,10,16,07,25.60
2014,07,10,16,08,25.60
2014,07,10,16,09,25.60
2014,07,10,16,10,25.70
2014,07,10,16,11,25.90
2014,07,10,16,12,26.00
2014,07,10,16,13,26.10
2014,07,10,16,14,26.20
2014,07,10,16,15,26.30
2014,07,10,16,16,26.40
2014,07,10,16,17,26.40
2014,07,10,16,18,26.30
2014,07,10,16,19,26.30
2014,07,10,16,20,26.40
2014,07,10,16,21,26.40
2014,07,10,16,22,26.40
2014,07,10,16,23,26.40
2014,07,10,16,24,26.40
2014,07,10,16,25,26.40
2014,07,10,16,26,26.40
2014,07,10,16,27,26.50
2014,07,10,16,28,26.40
2014,07,10,16,29,26.40
2014,07,10,16,30,26.40
2014,07,10,16,31,26.30
2014,07,10,16,32,26.20
2014,07,10,16,33,26.20
2014,07,10,16,34,26.20
2014,07,10,16,35,26.20
2014,07,10,16,36,26.10
2014,07,10,16,37,26.00
2014,07,10,16,38,26.00
2014,07,10,16,39,26.00
2014,07,10,16,40,26.00
2014,07,10,16,41,26.10
2014,07,10,16,42,26.10
2014,07,10,16,43,26.20
2014,07,10,16,44,26.30
2014,07,10,16,45,26.40
2014,07,10,16,46,26.50
2014,07,10,16,47,26.60
2014,07,10,16,48,26.60
2014,07,10,16,49,26.50
2014,07,10,16,50,26.50
2014,07,10,16,51,26.60
2014,07,10,16,52,26.50
2014,07,10,16,53,26.50
2014,07,10,16,54,26.40
2014,07,10,16,55,26.50
2014,07,10,16,56,26.50
2014,07,10,16,57,26.50
2014,07,10,16,58,26.50
2014,07,10,16,59,26.40
2014,07,10,17,00,26.40
2014,07,10,17,01,26.50
2014,07,10,17,02,26.60
2014,07,10,17,03,26.50
2014,07,10,17,04,26.50
2014,07,10,17,05,26.40
2014,07,10,17,06,26.30
2014,07,10,17,07,26.30
2014,07,10,17,08,26.30
2014,07,10,17,09,26.30
2014,07,10,17,10,26.30
2014,07,10,17,11,26.30
2014,07,10,17,12,26.40
2014,07,10,17,13,26.40
2014,07,10,17,14,26.40
2014,07,10,17,15,26.40
2014,07,10,17,16,26.40
2014,07,10,17,17,26.40
2014,07,10,17,18,26.40
2014,07,10,17,19,26.30